KINEIS-1C

Last updated on Wed Oct 22 2025 00:02:42 GMT+0000 (Coordinated Universal Time)

1 60081U 24114C 25294.61789115 .00001848 00000+0 25126-3 0 9996 2 60081 98.0052 314.5949 0000805 138.8762 221.2511 14.79993339 72082
UTC large
Height (km)
Speed (km/s)
/
Latitude / Longitude
Inclination (degrees)
Orbital Period (minutes)
Azimuth
Elevation
Range (km)
Doppler Factor

Next 0 passes for location: London (51.5072 / 0.1276)

Sorry there are no passes over London.